| time (UTC) | temp F | wind direction | speed knots | gust knots | rain 1hr in | rain 24hr in | rain mn in | humidity % | barometer mb |
| 20260504100304 | 48 | 169 | 0.9 | 4.3 | 0.00 | 0.00 | 0.00 | 57 | 984.3 |
| 20260504081802 | 46 | 239 | 0.0 | 0.0 | 0.00 | 0.00 | 0.00 | 57 | 984.7 |
| 20260504081302 | 46 | 239 | 0.0 | 0.0 | 0.00 | 0.00 | 0.00 | 57 | 984.7 |
| 20260504080807 | 45 | 239 | 0.0 | 0.0 | 0.00 | 0.00 | 0.00 | 57 | 984.7 |
| 20260504080300 | 45 | 239 | 0.0 | 0.0 | 0.00 | 0.00 | 0.00 | 57 | 984.8 |
| 20260504070303 | 45 | 294 | 0.0 | 0.0 | 0.00 | 0.00 | 0.00 | 57 | 984.7 |
| 20260504050731 | 45 | 294 | 0.0 | 0.0 | 0.00 | 0.00 | 0.00 | 58 | 985.5 |
| 20260504045219 | 46 | 294 | 0.0 | 0.0 | 0.00 | 0.00 | 0.00 | 57 | 985.5 |
| 20260504044710 | 46 | 294 | 0.0 | 0.0 | 0.00 | 0.00 | 0.00 | 58 | 985.5 |
| 20260504043707 | 46 | 294 | 0.0 | 0.0 | 0.00 | 0.00 | 0.00 | 55 | 985.4 |
| 20260504043205 | 46 | 294 | 0.0 | 0.0 | 0.00 | 0.00 | 0.00 | 56 | 985.5 |
| 20260504042705 | 46 | 294 | 0.0 | 0.0 | 0.00 | 0.00 | 0.00 | 57 | 985.4 |
| 20260504042204 | 47 | 294 | 0.0 | 0.0 | 0.00 | 0.00 | 0.00 | 58 | 985.5 |
| 20260504041706 | 47 | 294 | 0.0 | 0.0 | 0.00 | 0.00 | 0.00 | 56 | 985.4 |
| 20260504041200 | 47 | 294 | 0.0 | 0.0 | 0.00 | 0.00 | 0.00 | 54 | 985.3 |
| 20260504040201 | 46 | 294 | 0.0 | 0.0 | 0.00 | 0.00 | 0.00 | 54 | 985.2 |
| 20260504035201 | 46 | 294 | 0.0 | 0.0 | 0.00 | 0.00 | 0.00 | 54 | 985.2 |
| 20260504034702 | 46 | 294 | 0.0 | 0.0 | 0.00 | 0.00 | 0.00 | 54 | 985.1 |
| 20260504034202 | 46 | 294 | 0.0 | 0.0 | 0.00 | 0.00 | 0.00 | 54 | 985.0 |
| 20260504033707 | 46 | 294 | 0.0 | 0.0 | 0.00 | 0.00 | 0.00 | 56 | 985.1 |
| 20260504033202 | 46 | 294 | 0.0 | 0.0 | 0.00 | 0.00 | 0.00 | 56 | 985.0 |
| 20260504032706 | 46 | 294 | 0.0 | 0.0 | 0.00 | 0.00 | 0.00 | 56 | 985.0 |
| 20260504032204 | 46 | 294 | 0.0 | 0.0 | 0.00 | 0.00 | 0.00 | 55 | 984.9 |
| 20260504031703 | 46 | 294 | 0.0 | 0.0 | 0.00 | 0.00 | 0.00 | 54 | 985.1 |
| 20260504031204 | 46 | 294 | 0.0 | 0.0 | 0.00 | 0.00 | 0.00 | 55 | 985.1 |
| 20260504030203 | 46 | 294 | 0.0 | 0.0 | 0.00 | 0.00 | 0.00 | 55 | 984.9 |
| 20260504025706 | 46 | 294 | 0.0 | 0.0 | 0.00 | 0.00 | 0.00 | 55 | 984.9 |
| 20260504025202 | 46 | 294 | 0.0 | 0.0 | 0.00 | 0.00 | 0.00 | 55 | 984.9 |
| 20260504024705 | 47 | 294 | 0.0 | 0.0 | 0.00 | 0.00 | 0.00 | 55 | 985.0 |
| 20260504023703 | 47 | 294 | 0.0 | 0.0 | 0.00 | 0.00 | 0.00 | 54 | 985.0 |
| 20260504023203 | 47 | 294 | 0.0 | 0.0 | 0.00 | 0.00 | 0.00 | 55 | 985.0 |
| 20260504022706 | 47 | 294 | 0.0 | 0.0 | 0.00 | 0.00 | 0.00 | 55 | 984.9 |
| 20260504022204 | 47 | 294 | 0.0 | 0.0 | 0.00 | 0.00 | 0.00 | 55 | 984.9 |
| 20260504021703 | 47 | 294 | 0.0 | 0.0 | 0.00 | 0.00 | 0.00 | 54 | 984.9 |
| 20260504021202 | 48 | 294 | 0.0 | 0.0 | 0.00 | 0.00 | 0.00 | 55 | 984.9 |
| 20260504020703 | 48 | 294 | 0.0 | 0.0 | 0.00 | 0.00 | 0.00 | 56 | 984.9 |
| 20260504020209 | 48 | 294 | 0.0 | 0.0 | 0.00 | 0.00 | 0.00 | 55 | 984.9 |
| 20260504015703 | 48 | 294 | 0.0 | 0.0 | 0.00 | 0.00 | 0.00 | 54 | 984.9 |
| 20260504015204 | 48 | 294 | 0.0 | 0.0 | 0.00 | 0.00 | 0.00 | 53 | 984.8 |
| 20260504014704 | 48 | 294 | 0.0 | 0.0 | 0.00 | 0.00 | 0.00 | 53 | 984.8 |
| 20260504013703 | 48 | 294 | 0.0 | 0.0 | 0.00 | 0.00 | 0.00 | 54 | 984.9 |
| 20260504013203 | 49 | 294 | 0.0 | 0.0 | 0.00 | 0.00 | 0.00 | 54 | 984.9 |
| 20260504012702 | 49 | 294 | 0.0 | 0.0 | 0.00 | 0.00 | 0.00 | 53 | 984.9 |
| 20260504011652 | 50 | 294 | 0.0 | 0.0 | 0.00 | 0.00 | 0.00 | 49 | 984.6 |
| 20260504011142 | 51 | 294 | 0.0 | 0.0 | 0.00 | 0.00 | 0.00 | 50 | 984.7 |
| 20260504010642 | 51 | 294 | 0.0 | 0.0 | 0.00 | 0.00 | 0.00 | 50 | 984.7 |
| 20260504010135 | 51 | 294 | 0.0 | 0.0 | 0.00 | 0.00 | 0.00 | 50 | 984.6 |
| 20260504005632 | 51 | 294 | 0.0 | 0.0 | 0.00 | 0.00 | 0.00 | 50 | 984.6 |
| 20260504004129 | 53 | 294 | 0.0 | 0.0 | 0.00 | 0.00 | 0.00 | 47 | 984.5 |
| 20260504003629 | 53 | 294 | 0.0 | 0.0 | 0.00 | 0.00 | 0.00 | 46 | 984.4 |
| 20260504003132 | 53 | 294 | 0.0 | 0.0 | 0.00 | 0.00 | 0.00 | 46 | 984.4 |
| 20260504002628 | 53 | 294 | 0.0 | 0.0 | 0.00 | 0.00 | 0.00 | 46 | 984.3 |
| 20260504002132 | 53 | 294 | 0.0 | 0.0 | 0.00 | 0.00 | 0.00 | 45 | 984.3 |
| 20260504001631 | 54 | 294 | 0.0 | 0.0 | 0.00 | 0.00 | 0.00 | 45 | 984.3 |
| 20260504001133 | 54 | 294 | 0.0 | 0.0 | 0.00 | 0.00 | 0.00 | 45 | 984.3 |
| 20260504000630 | 54 | 294 | 0.0 | 0.0 | 0.00 | 0.00 | 0.00 | 45 | 984.3 |
| 20260504000131 | 55 | 294 | 0.0 | 0.0 | 0.00 | 0.00 | 0.00 | 44 | 984.3 |
| 20260503235130 | 56 | 294 | 0.0 | 0.0 | 0.00 | 0.00 | 0.00 | 42 | 984.2 |
| 20260503234629 | 56 | 294 | 0.0 | 0.0 | 0.00 | 0.00 | 0.00 | 41 | 984.2 |
| 20260503234131 | 56 | 294 | 0.0 | 0.0 | 0.00 | 0.00 | 0.00 | 41 | 984.1 |
| 20260503233632 | 57 | 294 | 0.0 | 0.0 | 0.00 | 0.00 | 0.00 | 40 | 984.1 |
| 20260503232629 | 57 | 294 | 0.0 | 2.6 | 0.00 | 0.00 | 0.00 | 40 | 984.1 |
| 20260503232129 | 57 | 298 | 0.9 | 1.7 | 0.00 | 0.00 | 0.00 | 40 | 984.0 |
| 20260503230619 | 58 | 347 | 0.9 | 6.1 | 0.00 | 0.00 | 0.00 | 39 | 983.8 |
| 20260503230116 | 58 | 330 | 1.7 | 6.1 | 0.00 | 0.00 | 0.00 | 39 | 983.9 |
| 20260503225611 | 58 | 339 | 1.7 | 4.3 | 0.00 | 0.00 | 0.00 | 38 | 983.8 |
| 20260503225103 | 58 | 307 | 0.9 | 4.3 | 0.00 | 0.00 | 0.00 | 39 | 983.9 |
| 20260503224602 | 58 | 269 | 0.9 | 2.6 | 0.00 | 0.00 | 0.00 | 39 | 983.9 |
| 20260503224103 | 58 | 315 | 0.9 | 3.5 | 0.00 | 0.00 | 0.00 | 39 | 984.0 |
| 20260503223558 | 59 | 321 | 0.9 | 3.5 | 0.00 | 0.00 | 0.00 | 38 | 984.0 |
| 20260503222548 | 59 | 328 | 1.7 | 5.2 | 0.00 | 0.00 | 0.00 | 37 | 984.0 |
| 20260503222041 | 59 | 340 | 0.9 | 5.2 | 0.00 | 0.00 | 0.00 | 39 | 984.0 |
| 20260503221541 | 59 | 344 | 1.7 | 7.8 | 0.00 | 0.00 | 0.00 | 36 | 984.0 |
| 20260503221037 | 60 | 336 | 0.9 | 7.8 | 0.00 | 0.00 | 0.00 | 36 | 984.1 |
| 20260503220539 | 60 | 313 | 1.7 | 4.3 | 0.00 | 0.00 | 0.00 | 36 | 984.0 |
| 20260503220040 | 60 | 275 | 0.9 | 3.5 | 0.00 | 0.00 | 0.00 | 36 | 984.1 |
| 20260503215534 | 60 | 113 | 1.7 | 3.5 | 0.00 | 0.00 | 0.00 | 36 | 984.0 |
| 20260503215032 | 60 | 69 | 0.9 | 2.6 | 0.00 | 0.00 | 0.00 | 36 | 984.1 |
| 20260503213029 | 60 | 46 | 1.7 | 4.3 | 0.00 | 0.00 | 0.00 | 37 | 984.1 |
| 20260503212531 | 60 | 304 | 0.9 | 3.5 | 0.00 | 0.00 | 0.00 | 36 | 984.0 |
| 20260503212031 | 60 | 338 | 0.0 | 3.5 | 0.00 | 0.00 | 0.00 | 37 | 984.0 |
| 20260503211530 | 60 | 338 | 0.9 | 4.3 | 0.00 | 0.00 | 0.00 | 35 | 984.1 |
| 20260503211028 | 61 | 322 | 0.9 | 5.2 | 0.00 | 0.00 | 0.00 | 34 | 983.9 |
| 20260503210527 | 62 | 297 | 1.7 | 5.2 | 0.00 | 0.00 | 0.00 | 35 | 984.0 |
| 20260503210028 | 62 | 300 | 0.9 | 2.6 | 0.00 | 0.00 | 0.00 | 35 | 984.0 |
| 20260503205523 | 62 | 333 | 0.9 | 4.3 | 0.00 | 0.00 | 0.00 | 35 | 983.9 |
| 20260503205026 | 62 | 321 | 1.7 | 8.7 | 0.00 | 0.00 | 0.00 | 35 | 984.0 |
| 20260503204518 | 62 | 302 | 1.7 | 8.7 | 0.00 | 0.00 | 0.00 | 34 | 984.0 |
| 20260503204024 | 62 | 342 | 0.9 | 2.6 | 0.00 | 0.00 | 0.00 | 36 | 983.9 |
| 20260503203521 | 62 | 5 | 0.9 | 2.6 | 0.00 | 0.00 | 0.00 | 35 | 983.9 |
| 20260503203019 | 62 | 294 | 1.7 | 8.7 | 0.00 | 0.00 | 0.00 | 35 | 983.9 |
| 20260503202507 | 63 | 300 | 1.7 | 8.7 | 0.00 | 0.00 | 0.00 | 35 | 984.0 |
| 20260503202005 | 63 | 262 | 1.7 | 11.3 | 0.00 | 0.00 | 0.00 | 35 | 984.0 |
| 20260503201503 | 63 | 324 | 1.7 | 11.3 | 0.00 | 0.00 | 0.00 | 37 | 984.1 |
| 20260503200502 | 63 | 93 | 4.3 | 8.7 | 0.00 | 0.00 | 0.00 | 33 | 984.2 |
| 20260503200000 | 63 | 265 | 1.7 | 8.7 | 0.00 | 0.00 | 0.00 | 35 | 984.1 |
| 20260503195502 | 63 | 9 | 0.9 | 9.6 | 0.00 | 0.00 | 0.00 | 34 | 984.2 |
| 20260503195001 | 64 | 259 | 1.7 | 9.6 | 0.00 | 0.00 | 0.00 | 35 | 984.2 |
| 20260503194501 | 64 | 289 | 0.9 | 7.0 | 0.00 | 0.00 | 0.00 | 39 | 984.5 |
| 20260503194002 | 64 | 321 | 1.7 | 7.0 | 0.00 | 0.00 | 0.00 | 35 | 984.3 |
| 20260503193502 | 64 | 286 | 0.9 | 3.5 | 0.00 | 0.00 | 0.00 | 36 | 984.5 |
| 20260503192502 | 62 | 315 | 1.7 | 8.7 | 0.00 | 0.00 | 0.00 | 36 | 984.7 |
| 20260503192003 | 62 | 349 | 2.6 | 8.7 | 0.00 | 0.00 | 0.00 | 36 | 984.8 |
| 20260503191501 | 62 | 5 | 1.7 | 5.2 | 0.00 | 0.00 | 0.00 | 41 | 984.7 |
| 20260503190500 | 61 | 182 | 0.9 | 7.0 | 0.00 | 0.00 | 0.00 | 41 | 984.6 |
| 20260503190000 | 61 | 161 | 1.7 | 7.0 | 0.00 | 0.00 | 0.00 | 39 | 984.7 |
| 20260503185001 | 61 | 352 | 2.6 | 8.7 | 0.00 | 0.00 | 0.00 | 36 | 984.9 |
| 20260503184456 | 61 | 294 | 0.9 | 3.5 | 0.00 | 0.00 | 0.00 | 42 | 985.0 |
| 20260503183452 | 61 | 53 | 0.9 | 7.0 | 0.00 | 0.00 | 0.00 | 40 | 985.0 |
| 20260503182953 | 62 | 348 | 2.6 | 7.0 | 0.00 | 0.00 | 0.00 | 37 | 985.1 |
| 20260503182446 | 62 | 310 | 0.9 | 4.3 | 0.00 | 0.00 | 0.00 | 40 | 985.1 |
| 20260503181946 | 62 | 344 | 0.9 | 3.5 | 0.00 | 0.00 | 0.00 | 43 | 985.1 |
| 20260503180932 | 62 | 290 | 0.9 | 3.5 | 0.00 | 0.00 | 0.00 | 42 | 985.2 |
| 20260503180432 | 61 | 271 | 0.9 | 10.4 | 0.00 | 0.00 | 0.00 | 44 | 985.3 |
| 20260503175930 | 60 | 325 | 2.6 | 13.0 | 0.00 | 0.00 | 0.00 | 41 | 985.2 |
| 20260503175430 | 60 | 315 | 4.3 | 13.0 | 0.00 | 0.00 | 0.00 | 39 | 985.3 |
| 20260503174930 | 60 | 260 | 1.7 | 8.7 | 0.00 | 0.00 | 0.00 | 41 | 985.2 |
| 20260503173928 | 58 | 345 | 2.6 | 8.7 | 0.00 | 0.00 | 0.00 | 45 | 985.3 |
| 20260503173429 | 57 | 322 | 2.6 | 8.7 | 0.00 | 0.00 | 0.00 | 43 | 985.4 |
| 20260503172930 | 58 | 279 | 1.7 | 9.6 | 0.00 | 0.00 | 0.00 | 42 | 985.4 |
| 20260503172430 | 58 | 285 | 2.6 | 10.4 | 0.00 | 0.00 | 0.00 | 42 | 985.5 |
| 20260503171930 | 58 | 342 | 3.5 | 10.4 | 0.00 | 0.00 | 0.00 | 41 | 985.5 |
| 20260503171429 | 57 | 297 | 1.7 | 4.3 | 0.00 | 0.00 | 0.00 | 44 | 985.7 |
| 20260503170430 | 57 | 319 | 2.6 | 8.7 | 0.00 | 0.00 | 0.00 | 43 | 985.7 |
| 20260503150911 | 53 | 315 | 0.9 | 7.0 | 0.00 | 0.00 | 0.00 | 49 | 986.5 |
| 20260503130400 | 49 | 352 | 1.7 | 11.3 | 0.00 | 0.00 | 0.00 | 53 | 986.2 |
| 20260503110329 | 37 | 328 | 0.9 | 3.5 | 0.00 | 0.00 | 0.00 | 27 | 985.1 |